SCP
0 0 0 0 0 0 0 0 0 0 0 0 0 0 0 0 0 0 0 0 0 0 0 0 0 0 0 0 0 0 0 0 0 0 0 0 0 0 0 0 0 0 0 0 0 0 0 0 0 0 0 0 0 0
0 0 0 0 0 0 0 0 0 0 0 0 0 0 0 0 0 0 0 0 0 0 0 0 0 0 0 0 0 0 0 0 0 0 0 0 0 0 0 0 0 0 0 0 0 0 0 0 0 0 0 0 0 0
0 0 0 0 0 0 0 0 0 0 0 0 0 0 0 0 0 0 0 0 0 0 0 0 0 0 0 0 0 0 0 0 0 0 0 0 0 0 0 0 0 0 0 0 0 0 0 0 0 0 0 0 0 0
0 0 0 0 0 0 0 0 0 0 0 0 0 0 0 0 0 0 0 0 0 0 0 0 0 0 0 0 0 0 0 0 0 0 0 0 0 0 0 0 0 0 0 0 0 0 0 0 0 0 0 0 0 0
0 0 0 0 0 0 0 0 0 0 0 0 0 0 0 0 0 0 0 0 0 0 0 0 0 0 0 0 0 0 0 0 0 0 0 0 0 0 0 0 0 0 0 0 0 0 0 0 0 0 0 0 0 0
0 0 0 0 0 0 0 0 0 0 0 0 0 0 0 0 0 0 0 0 0 0 0 0 0 0 0 0 0 0 0 0 0 0 0 0 0 0 0 0 0 0 0 0 0 0 0 0 0 0 0 0 0 0
0 0 0 0 0 0 0 0 0 0 0 0 0 0 0 0 0 0 0 0 0 0 0 0 0 0 0 0 0 0 0 0 0 0 0 0 0 0 0 0 0 0 0 0 0 0 0 0 0 0 0 0 0 0
0 0 0 0 0 0 0 0 0 0 0 0 0 0 0 0 0 0 0 0 0 0 0 0 0 0 0 0 0 0 0 0 0 0 0 0 0 0 0 0 0 0 0 0 0 0 0 0 0 0 0 0 -0 -0
0 0 0 0 0 0 0 0 0 0 0 0 0 0 0 0 0 0 0 0 0 0 0 0 0 0 0 0 0 0 0 0 0 0 0 0 0 0 0 0 0 0 0 0 0 0 0 0 0 0 -0 -0 -0 0
0 0 0 0 0 0 0 0 0 0 0 0 0 0 0 0 0 0 0 0 0 0 0 0 0 0 0 0 0 0 0 0 0 0 0 0 0 0 0 0 0 0 0 -0 -0 0 0 0 0 0 -0 -0 0 0
0 0 0 0 0 0 0 0 0 0 0 0 0 0 0 0 0 0 0 0 0 0 0 0 0 0 0 0 0 0 0 0 0 0 0 0 0 0 0 0 0 0 0 0 0 0 0 0 0 0 0 0 0 0
0 0 -0 -0 -0 0 0 0 0 0 0 0 0 0 0 0 0 0 0 0 0 0 0 0 0 0 0 0 0 0 0 0 0 0 0 0 0 0 0 0 0 0 0 0 0 0 0 0 0 0 0 0 0 0
-0 -0 0 -0 -0 -0 0 0 0 -0 0 0 0 0 0 0 0 0 0 0 0 0 0 0 0 0 0 0 0 0 0 0 0 0 0 0 0 0 0 0 0 0 0 0 0 0 0 0 0 0 0 0 0 0
-0 -0 -0 0 0 0 0 0 0 0 0 0 0 0 0 0 0 0 0 0 0 0 0 0 0 0 0 0 0 0 0 0 0 0 0 0 0 0 0 0 0 0 0 0 0 0 0 0 -0 -0 0 0 0 0
-0 0 0 0 0 0 0 0 0 0 0 0 0 0 0 0 0 0 0 0 0 0 0 0 0 0 0 0 0 0 0 0 0 0 0 0 0 0 0 0 0 0 0 0 0 0 -0 -0 -0 0 0 0 0 0
0 0 0 -0 0 0 0 0 0 0 0 0 0 0 0 0 0 0 0 0 0 0 0 0 0 0 0 0 0 0 0 0 0 0 0 0 0 0 0 0 0 0 0 0 0 0 0 0 -0 0 0 0 0 0
0 0 0 0 0 0 0 0 0 0 0 0 0 0 0 0 0 0 0 0 0 0 0 0 0 0 0 0 0 0 0 0 0 0 0 0 0 0 0 0 0 0 0 0 0 0 -0 -0 -0 0 0 0 0 0
0 0 0 0 0 0 0 0 0 0 0 0 0 0 0 0 0 -0 0 0 0 0 0 0 0 0 0 0 0 0 0 0 0 0 0 0 0 0 0 0 0 0 0 0 0 0 -0 -0 0 0 0 0 0 0
0 0 0 0 0 0 0 0 0 0 0 0 0 0 0 0 0 0 0 0 0 0 -0 0 0 0 0 0 0 0 0 0 0 0 0 0 0 0 0 0 0 0 0 0 0 -0 -0 -0 0 0 0 0 0 0
0 0 0 0 0 0 0 0 0 0 0 0 0 0 0 -0 -0 -0 0 0 0 0 0 0 0 0 0 0 0 0 0 0 0 0 0 0 0 0 0 0 0 0 0 0 0 -0 -0 -0 0 0 0 0 0 0
0 0 0 0 0 0 0 0 0 0 0 0 0 0 0 0 0 0 -0 -0 0 0 0 0 0 0 0 0 0 0 0 0 0 0 -0 -0 -0 0 0 0 0 0 0 0 0 -0 0 0 0 0 0 0 0 0
0 0 0 0 0 0 0 0 0 0 0 0 0 0 0 0 0 0 0 0 0 0 0 0 0 0 0 0 0 0 0 0 0 0 0 0 -0 0 0 0 0 0 -0 -0 -0 -0 0 0 0 0 0 0 0 0
0 0 0 0 0 0 0 0 0 0 0 0 0 0 0 0 0 0 0 0 0 0 -0 0 0 0 0 0 0 0 0 0 0 0 0 0 0 0 0 0 0 0 -0 -0 -0 0 0 0 0 0 0 0 0 0
0 0 0 0 0 0 0 0 0 0 0 0 0 0 0 0 0 0 0 0 0 0 0 0 0 0 0 0 0 0 0 0 0 0 0 0 0 -0 0 0 -0 -0 -0 -0 -0 0 0 0 0 0 0 0 0 0
0 0 0 0 0 0 0 0 0 0 0 0 0 0 0 0 0 -0 0 0 0 0 0 0 0 0 0 0 0 0 0 0 0 0 0 0 0 0 0 0 -0 -0 -0 -0 -0 0 0 0 0 0 0 0 0 0
0 0 0 0 0 0 0 0 0 0 0 0 0 0 0 0 0 0 0 0 0 0 0 0 0 0 0 0 0 0 0 0 0 0 0 0 0 0 0 0 0 0 -0 -0 0 0 0 0 0 0 0 0 0 0
0 0 0 0 0 0 0 0 0 0 0 0 0 0 0 0 0 0 0 0 0 0 0 0 0 0 0 0 0 0 0 0 0 0 0 0 0 0 0 0 0 0 0 0 0 0 0 0 0 0 0 0 0 0
-0 0 -0 0 0 0 0 0 0 0 0 0 0 0 0 0 0 0 0 0 0 0 0 0 0 0 0 0 0 0 0 0 0 0 0 0 0 0 0 0 0 0 0 0 0 0 0 0 0 0 0 0 0 0
-0 0 0 -0 0 0 0 0 0 0 0 0 0 0 0 0 0 0 0 0 0 0 0 0 0 0 0 0 0 0 0 0 0 0 0 0 0 0 0 0 0 0 0 0 0 0 0 0 0 0 0 0 0 0
0 -0 0 0 -0 -0 0 0 0 0 0 0 -0 0 0 0 0 0 0 0 0 0 0 0 0 0 0 0 0 0 0 0 0 0 0 0 0 0 0 0 0 0 0 0 0 0 0 0 0 0 0 0 0 0
-0 -0 -0 -0 0 0 0 0 0 0 0 0 0 0 0 0 0 -0 0 0 0 0 0 0 0 0 0 0 0 0 0 0 0 0 0 0 0 0 0 0 0 0 0 0 0 0 0 0 0 0 0 0 0 0
-0 0 0 -0 -0 0 0 0 0 0 0 0 0 0 0 0 -0 0 0 0 0 0 0 0 0 0 0 0 0 0 0 0 0 0 0 0 0 0 0 0 0 0 0 0 0 0 0 0 0 0 0 0 0 0
-0 0 0 0 0 0 -0 -0 -0 -0 0 0 0 -0 -0 -0 0 0 0 0 0 0 0 0 0 0 0 0 0 0 0 0 0 0 0 0 0 0 0 0 0 0 0 0 0 0 0 0 0 0 0 0 0 0
Wind_Speed_500mb
36 36 35 35 34 32 32 27 30 32 34 34 31 27 24 23 19 13 12 13 7 9 18 9 6 6 4 1 7 7 7 5 7 6 4 5 4 2 5 8 10 11 10 6 5 2 11 18 4 10 9 14 12 11
39 40 36 35 34 32 27 25 28 30 32 32 29 25 24 24 21 17 14 16 15 18 13 15 21 15 11 7 4 9 6 7 9 7 1 3 1 3 5 4 2 1 11 10 13 10 3 15 4 12 14 10 9 10
44 41 34 33 30 30 30 25 26 28 31 30 26 23 25 25 23 22 19 17 16 16 22 16 9 23 23 19 13 9 8 10 9 7 11 4 2 7 5 8 2 2 7 7 7 1 9 15 17 13 6 2 5 13
40 36 31 32 33 28 29 29 25 26 28 30 26 21 24 23 24 24 20 16 11 8 6 4 9 12 10 12 12 15 8 13 13 8 5 5 4 11 7 4 7 7 7 9 4 2 6 11 12 13 10 6 10 8
36 34 34 33 34 30 27 28 26 26 23 25 27 22 22 17 21 22 21 20 19 10 5 12 12 11 10 6 12 7 3 11 10 7 5 5 5 5 1 4 4 12 11 8 9 28 15 11 26 21 14 8 6 3
36 36 36 36 33 30 26 27 29 23 22 23 24 21 17 15 16 13 10 25 27 20 6 6 6 14 22 17 12 3 4 6 6 6 6 7 7 4 5 5 8 13 14 12 9 21 19 15 24 18 9 6 5 4
35 36 35 31 30 28 25 25 28 26 24 24 21 19 15 18 19 17 3 6 20 23 6 9 10 8 29 22 15 13 11 3 3 4 6 5 4 5 5 7 16 24 20 16 15 23 22 26 13 14 7 4 2 5
36 34 32 31 30 27 25 24 31 32 26 20 20 18 15 15 21 25 16 9 21 16 7 3 8 6 33 12 11 13 9 10 6 4 4 6 4 3 5 13 14 27 24 24 26 14 9 16 16 11 4 6 7 10
37 36 32 29 28 25 26 25 27 33 24 18 17 16 11 14 13 16 33 19 16 13 5 8 8 9 30 15 9 13 10 2 4 5 6 9 1 8 13 24 34 40 33 29 25 16 12 7 14 12 16 16 12 13
35 34 32 30 28 27 25 24 23 32 26 15 16 11 9 12 18 21 21 11 13 8 11 10 9 6 23 14 9 11 7 5 3 8 11 4 8 26 22 30 24 38 34 31 32 22 17 18 18 21 17 14 15 13
39 35 34 30 29 27 24 21 21 33 30 30 16 7 10 22 21 11 8 8 10 4 13 15 24 7 20 9 8 12 7 4 3 8 8 3 6 11 25 40 38 39 35 29 13 8 8 9 21 25 23 15 13 11
39 35 34 32 30 27 24 22 25 35 20 18 24 20 15 9 8 6 7 9 10 11 14 18 32 29 12 14 9 13 7 4 9 12 5 5 8 13 21 33 40 37 31 20 8 5 15 23 24 23 20 15 12 7
41 37 37 36 33 28 25 27 31 41 25 22 15 13 13 11 9 12 14 9 7 12 20 24 11 27 22 13 7 6 7 9 15 4 8 9 12 27 40 49 43 32 22 12 10 14 25 28 21 22 17 11 9 8
35 36 38 34 32 28 26 31 35 41 30 10 9 8 9 9 11 11 10 9 19 9 23 42 24 12 14 9 8 8 8 8 4 5 10 7 39 48 53 47 40 30 17 9 14 24 28 25 23 19 15 13 13 15
33 35 36 31 31 30 30 36 42 47 15 12 10 9 14 17 16 13 22 30 22 26 17 36 8 11 7 8 6 6 7 9 12 10 8 25 52 59 55 45 32 23 15 18 25 24 19 19 23 23 22 18 14 17
30 29 35 31 27 28 31 35 39 42 11 8 10 7 15 4 13 13 17 26 11 13 19 5 3 4 5 6 8 13 13 11 7 9 12 44 61 59 50 38 27 17 13 21 21 19 15 13 16 30 34 28 22 21
34 27 26 26 26 29 35 43 20 15 14 8 10 18 28 24 18 10 9 6 4 10 4 7 7 13 5 7 7 9 11 8 17 20 35 57 61 55 43 34 25 17 21 20 17 13 11 17 14 20 35 37 31 24
33 26 21 33 38 34 38 27 8 9 10 20 10 8 22 20 9 3 5 3 5 17 18 4 11 6 9 11 7 8 10 15 23 38 49 53 51 44 35 28 22 22 20 14 8 6 15 10 13 17 30 35 35 29
24 28 28 41 45 25 15 10 5 7 17 11 19 25 9 16 10 6 6 5 7 20 19 5 8 7 7 8 10 17 35 41 47 49 51 47 40 34 29 24 26 25 20 14 7 10 10 16 19 24 27 29 27 26
22 29 26 35 35 5 5 7 15 9 7 10 11 10 12 11 16 7 4 2 5 3 5 6 8 9 15 11 22 41 44 49 63 64 53 44 34 29 25 28 32 24 21 16 12 20 30 28 21 18 19 21 27 34
23 30 28 36 30 11 6 8 12 8 6 6 1 12 5 5 22 17 5 8 5 6 5 15 3 20 28 20 29 40 51 62 67 64 60 51 37 26 27 28 30 28 25 18 15 16 13 17 22 25 22 23 30 29
20 26 41 44 10 8 6 10 4 1 6 3 4 9 9 7 8 9 8 4 5 7 7 8 3 17 22 23 25 34 50 56 51 47 45 41 39 30 30 34 34 29 32 22 17 13 17 16 8 10 16 23 23 23
37 37 21 6 2 5 2 9 3 3 3 1 5 6 3 4 5 8 5 7 9 22 23 9 5 18 23 23 32 34 42 45 40 41 38 35 25 20 26 35 36 32 31 25 25 18 19 11 1 3 17 25 29 25
30 10 8 8 8 3 7 8 4 3 3 4 4 2 2 6 9 6 4 7 13 17 28 32 18 18 19 19 31 37 38 38 40 40 36 32 31 23 23 30 36 34 25 23 29 19 26 21 14 20 25 34 36 41
4 5 4 3 6 4 4 3 2 2 3 3 4 4 4 5 3 3 6 10 26 29 27 27 34 22 30 24 21 36 32 34 41 41 39 35 31 28 29 31 34 36 31 28 27 26 30 30 19 12 13 19 35 36
2 6 9 8 5 8 8 6 7 9 4 4 6 3 4 4 2 8 6 9 15 22 27 33 42 34 27 29 34 30 30 26 29 43 38 41 39 32 32 31 35 44 36 31 30 26 27 41 12 10 5 18 32 35
2 8 8 10 7 7 3 4 7 6 6 6 5 4 4 2 7 7 6 9 12 10 15 27 33 41 40 33 30 33 26 26 30 30 27 36 39 34 15 11 20 29 38 33 39 29 30 39 14 10 17 13 30 39
10 6 10 15 11 11 5 5 3 3 6 8 13 6 10 11 8 4 1 6 8 13 16 15 21 34 43 49 39 33 31 27 47 41 32 31 32 25 20 14 10 27 37 36 40 36 23 33 16 16 28 25 44 43
7 8 9 8 9 9 12 12 15 15 8 5 10 5 7 7 9 6 5 5 8 9 15 8 18 30 36 33 53 44 38 39 51 47 37 36 38 38 35 27 23 35 43 46 40 30 28 37 20 28 29 41 36 31
9 14 7 8 10 9 8 15 13 18 17 18 9 11 12 17 12 13 10 6 7 7 9 11 17 29 21 18 47 57 55 45 38 49 49 49 51 38 39 39 35 39 50 51 46 38 33 35 25 37 30 39 37 33
7 17 11 7 7 12 14 7 9 13 15 20 16 16 15 10 19 24 26 26 24 21 20 17 17 22 24 14 32 51 53 44 43 36 33 34 43 42 39 46 39 44 57 56 51 39 35 44 26 19 33 45 35 30
12 16 16 6 7 11 16 12 10 10 12 15 13 14 12 11 10 20 24 24 34 42 34 27 26 26 22 21 15 35 41 45 50 46 45 35 37 36 33 43 40 42 59 60 57 46 34 45 34 26 43 44 39 43
3 13 11 11 8 9 9 8 3 4 7 9 15 20 19 13 12 13 18 18 24 29 33 31 24 21 23 18 20 30 34 30 30 36 40 37 29 28 35 41 42 39 51 68 61 59 29 42 46 41 50 45 39 43
Wind_Direction_500mb
307 305 298 286 279 273 283 284 280 280 279 284 281 277 270 267 266 250 219 234 263 266 277 258 307 339 330 198 142 156 66 354 53 68 138 205 162 244 92 168 176 158 149 182 95 98 279 176 107 161 184 148 188 210
304 303 300 295 278 265 269 271 285 282 280 283 284 276 264 257 257 238 212 219 258 271 274 271 250 243 253 276 180 162 153 161 158 92 212 109 134 50 137 211 46 128 177 179 167 211 233 171 138 134 146 155 206 277
293 294 294 296 294 277 250 256 271 287 285 285 285 276 259 253 248 234 223 233 261 278 287 273 270 235 242 246 254 216 188 177 167 151 154 158 178 131 160 245 201 326 151 114 94 47 130 137 140 153 163 289 275 286
284 286 284 289 293 286 255 246 265 269 280 285 286 277 256 255 243 234 230 223 248 266 283 242 119 148 194 264 243 216 200 164 156 160 121 128 161 190 206 213 169 197 125 120 71 4 135 195 196 198 215 246 286 283
277 279 281 283 289 291 270 242 250 262 275 286 289 281 264 254 245 235 231 221 230 235 278 288 241 218 201 208 183 174 220 200 170 150 103 217 219 146 164 85 254 186 169 147 217 198 179 199 201 204 220 264 293 333
267 270 273 278 279 285 278 252 239 252 259 271 288 291 277 242 239 215 229 229 223 222 277 312 253 202 192 191 193 207 134 133 159 165 189 225 232 210 138 194 259 179 171 178 176 190 193 172 176 191 233 287 302 331
266 268 269 268 270 273 278 251 228 241 249 258 266 269 281 239 213 197 183 170 181 180 237 298 299 194 193 179 187 189 186 175 161 187 222 238 196 200 126 181 202 192 190 183 178 161 141 176 196 210 243 290 118 157
260 263 263 260 260 262 270 265 231 230 235 249 255 265 262 238 224 212 200 222 186 186 235 207 269 171 183 171 175 182 181 196 219 243 231 214 194 162 257 238 202 191 183 179 178 205 221 174 183 188 199 131 164 161
256 255 255 256 255 253 260 266 243 224 225 231 245 253 234 219 211 209 208 200 204 226 235 196 181 218 177 174 157 162 178 127 200 214 241 148 234 221 225 187 174 178 184 183 177 180 165 173 173 169 150 152 150 160
256 250 249 252 247 244 253 258 239 209 210 209 224 220 203 193 184 163 183 211 209 232 229 238 214 228 171 161 159 137 172 191 175 241 150 143 249 237 217 206 211 201 194 191 168 163 189 195 187 179 164 160 158 168
253 251 244 245 239 239 246 242 222 200 204 197 192 221 172 165 163 181 177 170 172 211 222 233 211 173 185 143 163 200 174 168 154 254 140 258 282 245 223 211 211 200 201 185 203 243 218 212 190 176 166 163 174 189
244 249 237 232 231 231 232 225 206 202 199 191 171 155 138 189 207 204 184 179 193 216 205 194 203 203 173 169 136 181 159 112 228 155 122 252 248 228 192 189 181 176 173 181 193 188 177 167 168 165 168 176 185 185
240 247 227 225 225 223 224 211 206 204 193 195 167 165 172 187 200 203 191 194 198 208 195 180 170 180 204 205 114 131 141 209 123 126 222 220 198 179 172 161 157 163 173 174 162 151 159 157 158 162 161 170 194 216
235 238 218 223 222 218 219 210 207 203 183 207 161 188 207 191 227 205 198 187 216 250 204 175 152 158 169 147 164 136 203 113 173 223 231 222 190 177 171 169 169 165 168 172 163 161 169 177 178 179 196 218 212 215
228 227 214 206 216 220 213 203 200 199 175 184 197 212 217 234 241 257 245 258 268 295 194 170 138 159 161 139 191 121 144 206 203 221 225 202 183 177 173 171 170 170 168 157 159 166 184 202 216 221 221 226 225 207
214 207 198 203 211 201 192 191 194 196 197 206 219 243 253 270 274 253 262 259 257 181 141 125 77 106 150 167 151 203 166 208 237 212 204 177 177 178 175 174 175 167 167 161 173 184 207 217 263 235 223 225 214 202
193 186 194 205 189 181 182 193 170 172 189 209 233 234 255 276 259 262 255 207 178 140 111 165 203 209 131 169 193 177 189 199 200 187 176 179 179 175 175 174 172 166 169 177 186 210 239 290 267 232 211 204 190 199
176 181 184 171 173 182 185 197 143 160 200 229 236 250 235 241 296 199 180 213 187 143 153 255 320 226 202 180 211 209 163 155 175 173 172 169 168 172 176 176 167 168 168 169 185 237 288 251 190 178 173 177 186 203
173 173 175 176 177 153 158 188 229 226 236 246 245 245 279 219 246 197 217 216 203 200 163 130 258 219 214 211 195 179 171 162 158 159 159 163 167 170 172 169 168 167 162 153 157 22 60 161 172 171 173 182 203 210
172 178 173 178 179 151 103 170 191 232 243 229 237 216 195 206 184 179 246 26 98 126 138 158 242 233 127 137 169 167 168 162 150 150 156 161 167 171 171 169 167 160 159 157 151 86 83 103 132 152 179 188 176 165
167 182 173 172 185 208 205 191 203 221 265 248 293 206 180 185 175 193 151 33 305 220 174 266 274 100 91 99 165 166 160 161 164 163 163 164 169 169 164 166 171 169 167 163 145 130 102 99 81 95 138 154 149 151
157 178 163 177 191 192 232 210 244 298 252 232 118 117 121 125 139 166 169 184 224 251 198 282 352 87 115 120 145 169 168 169 169 165 160 158 160 173 178 175 175 175 170 163 158 120 129 147 133 112 132 143 155 157
156 163 161 203 149 172 170 144 274 243 118 291 122 96 83 129 147 171 256 241 222 201 213 218 71 115 125 132 158 157 175 176 172 167 167 164 155 162 175 176 178 175 175 173 169 151 149 138 34 65 148 147 142 144
162 146 177 202 193 190 156 204 201 148 92 50 67 63 221 186 165 183 235 252 228 204 214 219 200 167 143 152 161 172 177 180 180 180 179 167 168 169 182 182 181 181 180 176 176 162 170 168 119 114 141 162 156 149
103 193 174 249 206 171 163 155 148 106 184 167 90 296 259 167 99 209 227 245 224 231 227 215 209 191 181 180 163 185 181 180 194 199 190 191 183 175 176 178 187 188 189 188 182 177 169 183 185 126 139 156 167 170
103 211 179 199 203 172 175 167 197 196 156 170 217 173 158 90 260 243 238 270 297 248 222 209 203 202 189 192 190 178 195 201 209 210 201 197 199 201 186 183 188 193 189 190 187 179 179 176 135 148 194 155 171 175
235 241 213 221 208 196 199 195 163 138 181 186 186 157 100 200 240 252 290 327 301 260 210 205 203 206 204 190 187 193 180 201 202 201 209 208 208 211 208 216 215 195 184 183 185 177 166 175 186 193 176 172 173 168
231 250 183 187 192 198 148 105 108 232 216 202 152 169 182 200 241 277 332 56 62 152 167 196 203 202 205 204 193 187 196 209 210 206 210 201 197 198 208 233 225 193 179 179 177 174 164 178 152 153 178 182 174 172
246 231 200 178 183 209 209 182 202 203 220 189 166 216 226 225 282 280 278 260 215 176 189 177 164 184 201 209 210 208 197 208 202 200 211 213 201 200 199 210 211 188 184 180 177 172 179 164 173 158 170 174 177 174
237 214 210 204 168 204 232 211 225 218 206 220 232 244 256 261 263 253 257 259 202 186 164 175 186 185 200 204 196 201 215 222 217 209 208 211 199 198 194 195 197 185 182 185 184 174 167 156 143 167 192 190 176 172
240 178 196 218 214 221 242 227 180 182 205 212 221 241 244 274 272 267 266 251 237 232 230 233 212 197 206 217 201 195 206 209 217 215 214 214 208 193 198 198 191 186 182 186 182 178 175 177 160 167 178 175 169 166
212 202 187 172 207 197 176 194 207 212 205 205 216 231 255 271 283 284 286 251 229 225 225 223 220 205 200 203 192 195 198 203 206 201 204 208 205 194 198 194 189 188 186 187 181 182 168 180 190 174 179 174 169 171
221 168 160 143 138 165 171 173 221 269 235 230 226 227 239 248 253 266 279 248 226 216 215 206 194 189 187 188 180 194 200 188 187 203 208 205 195 197 186 192 201 196 190 189 189 187 176 167 182 187 181 175 179 182
Wind_Speed_850mb
36 36 35 35 34 32 32 27 30 32 34 34 31 27 24 23 19 13 12 13 7 9 18 9 6 6 4 1 7 7 7 5 7 6 4 5 4 2 5 8 10 11 10 6 5 2 11 18 4 10 9 14 12 11
39 40 36 35 34 32 27 25 28 30 32 32 29 25 24 24 21 17 14 16 15 18 13 15 21 15 11 7 4 9 6 7 9 7 1 3 1 3 5 4 2 1 11 10 13 10 3 15 4 12 14 10 9 10
44 41 34 33 30 30 30 25 26 28 31 30 26 23 25 25 23 22 19 17 16 16 22 16 9 23 23 19 13 9 8 10 9 7 11 4 2 7 5 8 2 2 7 7 7 1 9 15 17 13 6 2 5 13
40 36 31 32 33 28 29 29 25 26 28 30 26 21 24 23 24 24 20 16 11 8 6 4 9 12 10 12 12 15 8 13 13 8 5 5 4 11 7 4 7 7 7 9 4 2 6 11 12 13 10 6 10 8
36 34 34 33 34 30 27 28 26 26 23 25 27 22 22 17 21 22 21 20 19 10 5 12 12 11 10 6 12 7 3 11 10 7 5 5 5 5 1 4 4 12 11 8 9 28 15 11 26 21 14 8 6 3
36 36 36 36 33 30 26 27 29 23 22 23 24 21 17 15 16 13 10 25 27 20 6 6 6 14 22 17 12 3 4 6 6 6 6 7 7 4 5 5 8 13 14 12 9 21 19 15 24 18 9 6 5 4
35 36 35 31 30 28 25 25 28 26 24 24 21 19 15 18 19 17 3 6 20 23 6 9 10 8 29 22 15 13 11 3 3 4 6 5 4 5 5 7 16 24 20 16 15 23 22 26 13 14 7 4 2 5
36 34 32 31 30 27 25 24 31 32 26 20 20 18 15 15 21 25 16 9 21 16 7 3 8 6 33 12 11 13 9 10 6 4 4 6 4 3 5 13 14 27 24 24 26 14 9 16 16 11 4 6 7 10
37 36 32 29 28 25 26 25 27 33 24 18 17 16 11 14 13 16 33 19 16 13 5 8 8 9 30 15 9 13 10 2 4 5 6 9 1 8 13 24 34 40 33 29 25 16 12 7 14 12 16 16 12 13
35 34 32 30 28 27 25 24 23 32 26 15 16 11 9 12 18 21 21 11 13 8 11 10 9 6 23 14 9 11 7 5 3 8 11 4 8 26 22 30 24 38 34 31 32 22 17 18 18 21 17 14 15 13
39 35 34 30 29 27 24 21 21 33 30 30 16 7 10 22 21 11 8 8 10 4 13 15 24 7 20 9 8 12 7 4 3 8 8 3 6 11 25 40 38 39 35 29 13 8 8 9 21 25 23 15 13 11
39 35 34 32 30 27 24 22 25 35 20 18 24 20 15 9 8 6 7 9 10 11 14 18 32 29 12 14 9 13 7 4 9 12 5 5 8 13 21 33 40 37 31 20 8 5 15 23 24 23 20 15 12 7
41 37 37 36 33 28 25 27 31 41 25 22 15 13 13 11 9 12 14 9 7 12 20 24 11 27 22 13 7 6 7 9 15 4 8 9 12 27 40 49 43 32 22 12 10 14 25 28 21 22 17 11 9 8
35 36 38 34 32 28 26 31 35 41 30 10 9 8 9 9 11 11 10 9 19 9 23 42 24 12 14 9 8 8 8 8 4 5 10 7 39 48 53 47 40 30 17 9 14 24 28 25 23 19 15 13 13 15
33 35 36 31 31 30 30 36 42 47 15 12 10 9 14 17 16 13 22 30 22 26 17 36 8 11 7 8 6 6 7 9 12 10 8 25 52 59 55 45 32 23 15 18 25 24 19 19 23 23 22 18 14 17
30 29 35 31 27 28 31 35 39 42 11 8 10 7 15 4 13 13 17 26 11 13 19 5 3 4 5 6 8 13 13 11 7 9 12 44 61 59 50 38 27 17 13 21 21 19 15 13 16 30 34 28 22 21
34 27 26 26 26 29 35 43 20 15 14 8 10 18 28 24 18 10 9 6 4 10 4 7 7 13 5 7 7 9 11 8 17 20 35 57 61 55 43 34 25 17 21 20 17 13 11 17 14 20 35 37 31 24
33 26 21 33 38 34 38 27 8 9 10 20 10 8 22 20 9 3 5 3 5 17 18 4 11 6 9 11 7 8 10 15 23 38 49 53 51 44 35 28 22 22 20 14 8 6 15 10 13 17 30 35 35 29
24 28 28 41 45 25 15 10 5 7 17 11 19 25 9 16 10 6 6 5 7 20 19 5 8 7 7 8 10 17 35 41 47 49 51 47 40 34 29 24 26 25 20 14 7 10 10 16 19 24 27 29 27 26
22 29 26 35 35 5 5 7 15 9 7 10 11 10 12 11 16 7 4 2 5 3 5 6 8 9 15 11 22 41 44 49 63 64 53 44 34 29 25 28 32 24 21 16 12 20 30 28 21 18 19 21 27 34
23 30 28 36 30 11 6 8 12 8 6 6 1 12 5 5 22 17 5 8 5 6 5 15 3 20 28 20 29 40 51 62 67 64 60 51 37 26 27 28 30 28 25 18 15 16 13 17 22 25 22 23 30 29
20 26 41 44 10 8 6 10 4 1 6 3 4 9 9 7 8 9 8 4 5 7 7 8 3 17 22 23 25 34 50 56 51 47 45 41 39 30 30 34 34 29 32 22 17 13 17 16 8 10 16 23 23 23
37 37 21 6 2 5 2 9 3 3 3 1 5 6 3 4 5 8 5 7 9 22 23 9 5 18 23 23 32 34 42 45 40 41 38 35 25 20 26 35 36 32 31 25 25 18 19 11 1 3 17 25 29 25
30 10 8 8 8 3 7 8 4 3 3 4 4 2 2 6 9 6 4 7 13 17 28 32 18 18 19 19 31 37 38 38 40 40 36 32 31 23 23 30 36 34 25 23 29 19 26 21 14 20 25 34 36 41
4 5 4 3 6 4 4 3 2 2 3 3 4 4 4 5 3 3 6 10 26 29 27 27 34 22 30 24 21 36 32 34 41 41 39 35 31 28 29 31 34 36 31 28 27 26 30 30 19 12 13 19 35 36
2 6 9 8 5 8 8 6 7 9 4 4 6 3 4 4 2 8 6 9 15 22 27 33 42 34 27 29 34 30 30 26 29 43 38 41 39 32 32 31 35 44 36 31 30 26 27 41 12 10 5 18 32 35
2 8 8 10 7 7 3 4 7 6 6 6 5 4 4 2 7 7 6 9 12 10 15 27 33 41 40 33 30 33 26 26 30 30 27 36 39 34 15 11 20 29 38 33 39 29 30 39 14 10 17 13 30 39
10 6 10 15 11 11 5 5 3 3 6 8 13 6 10 11 8 4 1 6 8 13 16 15 21 34 43 49 39 33 31 27 47 41 32 31 32 25 20 14 10 27 37 36 40 36 23 33 16 16 28 25 44 43
7 8 9 8 9 9 12 12 15 15 8 5 10 5 7 7 9 6 5 5 8 9 15 8 18 30 36 33 53 44 38 39 51 47 37 36 38 38 35 27 23 35 43 46 40 30 28 37 20 28 29 41 36 31
9 14 7 8 10 9 8 15 13 18 17 18 9 11 12 17 12 13 10 6 7 7 9 11 17 29 21 18 47 57 55 45 38 49 49 49 51 38 39 39 35 39 50 51 46 38 33 35 25 37 30 39 37 33
7 17 11 7 7 12 14 7 9 13 15 20 16 16 15 10 19 24 26 26 24 21 20 17 17 22 24 14 32 51 53 44 43 36 33 34 43 42 39 46 39 44 57 56 51 39 35 44 26 19 33 45 35 30
12 16 16 6 7 11 16 12 10 10 12 15 13 14 12 11 10 20 24 24 34 42 34 27 26 26 22 21 15 35 41 45 50 46 45 35 37 36 33 43 40 42 59 60 57 46 34 45 34 26 43 44 39 43
3 13 11 11 8 9 9 8 3 4 7 9 15 20 19 13 12 13 18 18 24 29 33 31 24 21 23 18 20 30 34 30 30 36 40 37 29 28 35 41 42 39 51 68 61 59 29 42 46 41 50 45 39 43
Wind_Direction_850mb
307 305 298 286 279 273 283 284 280 280 279 284 281 277 270 267 266 250 219 234 263 266 277 258 307 339 330 198 142 156 66 354 53 68 138 205 162 244 92 168 176 158 149 182 95 98 279 176 107 161 184 148 188 210
304 303 300 295 278 265 269 271 285 282 280 283 284 276 264 257 257 238 212 219 258 271 274 271 250 243 253 276 180 162 153 161 158 92 212 109 134 50 137 211 46 128 177 179 167 211 233 171 138 134 146 155 206 277
293 294 294 296 294 277 250 256 271 287 285 285 285 276 259 253 248 234 223 233 261 278 287 273 270 235 242 246 254 216 188 177 167 151 154 158 178 131 160 245 201 326 151 114 94 47 130 137 140 153 163 289 275 286
284 286 284 289 293 286 255 246 265 269 280 285 286 277 256 255 243 234 230 223 248 266 283 242 119 148 194 264 243 216 200 164 156 160 121 128 161 190 206 213 169 197 125 120 71 4 135 195 196 198 215 246 286 283
277 279 281 283 289 291 270 242 250 262 275 286 289 281 264 254 245 235 231 221 230 235 278 288 241 218 201 208 183 174 220 200 170 150 103 217 219 146 164 85 254 186 169 147 217 198 179 199 201 204 220 264 293 333
267 270 273 278 279 285 278 252 239 252 259 271 288 291 277 242 239 215 229 229 223 222 277 312 253 202 192 191 193 207 134 133 159 165 189 225 232 210 138 194 259 179 171 178 176 190 193 172 176 191 233 287 302 331
266 268 269 268 270 273 278 251 228 241 249 258 266 269 281 239 213 197 183 170 181 180 237 298 299 194 193 179 187 189 186 175 161 187 222 238 196 200 126 181 202 192 190 183 178 161 141 176 196 210 243 290 118 157
260 263 263 260 260 262 270 265 231 230 235 249 255 265 262 238 224 212 200 222 186 186 235 207 269 171 183 171 175 182 181 196 219 243 231 214 194 162 257 238 202 191 183 179 178 205 221 174 183 188 199 131 164 161
256 255 255 256 255 253 260 266 243 224 225 231 245 253 234 219 211 209 208 200 204 226 235 196 181 218 177 174 157 162 178 127 200 214 241 148 234 221 225 187 174 178 184 183 177 180 165 173 173 169 150 152 150 160
256 250 249 252 247 244 253 258 239 209 210 209 224 220 203 193 184 163 183 211 209 232 229 238 214 228 171 161 159 137 172 191 175 241 150 143 249 237 217 206 211 201 194 191 168 163 189 195 187 179 164 160 158 168
253 251 244 245 239 239 246 242 222 200 204 197 192 221 172 165 163 181 177 170 172 211 222 233 211 173 185 143 163 200 174 168 154 254 140 258 282 245 223 211 211 200 201 185 203 243 218 212 190 176 166 163 174 189
244 249 237 232 231 231 232 225 206 202 199 191 171 155 138 189 207 204 184 179 193 216 205 194 203 203 173 169 136 181 159 112 228 155 122 252 248 228 192 189 181 176 173 181 193 188 177 167 168 165 168 176 185 185
240 247 227 225 225 223 224 211 206 204 193 195 167 165 172 187 200 203 191 194 198 208 195 180 170 180 204 205 114 131 141 209 123 126 222 220 198 179 172 161 157 163 173 174 162 151 159 157 158 162 161 170 194 216
235 238 218 223 222 218 219 210 207 203 183 207 161 188 207 191 227 205 198 187 216 250 204 175 152 158 169 147 164 136 203 113 173 223 231 222 190 177 171 169 169 165 168 172 163 161 169 177 178 179 196 218 212 215
228 227 214 206 216 220 213 203 200 199 175 184 197 212 217 234 241 257 245 258 268 295 194 170 138 159 161 139 191 121 144 206 203 221 225 202 183 177 173 171 170 170 168 157 159 166 184 202 216 221 221 226 225 207
214 207 198 203 211 201 192 191 194 196 197 206 219 243 253 270 274 253 262 259 257 181 141 125 77 106 150 167 151 203 166 208 237 212 204 177 177 178 175 174 175 167 167 161 173 184 207 217 263 235 223 225 214 202
193 186 194 205 189 181 182 193 170 172 189 209 233 234 255 276 259 262 255 207 178 140 111 165 203 209 131 169 193 177 189 199 200 187 176 179 179 175 175 174 172 166 169 177 186 210 239 290 267 232 211 204 190 199
176 181 184 171 173 182 185 197 143 160 200 229 236 250 235 241 296 199 180 213 187 143 153 255 320 226 202 180 211 209 163 155 175 173 172 169 168 172 176 176 167 168 168 169 185 237 288 251 190 178 173 177 186 203
173 173 175 176 177 153 158 188 229 226 236 246 245 245 279 219 246 197 217 216 203 200 163 130 258 219 214 211 195 179 171 162 158 159 159 163 167 170 172 169 168 167 162 153 157 22 60 161 172 171 173 182 203 210
172 178 173 178 179 151 103 170 191 232 243 229 237 216 195 206 184 179 246 26 98 126 138 158 242 233 127 137 169 167 168 162 150 150 156 161 167 171 171 169 167 160 159 157 151 86 83 103 132 152 179 188 176 165
167 182 173 172 185 208 205 191 203 221 265 248 293 206 180 185 175 193 151 33 305 220 174 266 274 100 91 99 165 166 160 161 164 163 163 164 169 169 164 166 171 169 167 163 145 130 102 99 81 95 138 154 149 151
157 178 163 177 191 192 232 210 244 298 252 232 118 117 121 125 139 166 169 184 224 251 198 282 352 87 115 120 145 169 168 169 169 165 160 158 160 173 178 175 175 175 170 163 158 120 129 147 133 112 132 143 155 157
156 163 161 203 149 172 170 144 274 243 118 291 122 96 83 129 147 171 256 241 222 201 213 218 71 115 125 132 158 157 175 176 172 167 167 164 155 162 175 176 178 175 175 173 169 151 149 138 34 65 148 147 142 144
162 146 177 202 193 190 156 204 201 148 92 50 67 63 221 186 165 183 235 252 228 204 214 219 200 167 143 152 161 172 177 180 180 180 179 167 168 169 182 182 181 181 180 176 176 162 170 168 119 114 141 162 156 149
103 193 174 249 206 171 163 155 148 106 184 167 90 296 259 167 99 209 227 245 224 231 227 215 209 191 181 180 163 185 181 180 194 199 190 191 183 175 176 178 187 188 189 188 182 177 169 183 185 126 139 156 167 170
103 211 179 199 203 172 175 167 197 196 156 170 217 173 158 90 260 243 238 270 297 248 222 209 203 202 189 192 190 178 195 201 209 210 201 197 199 201 186 183 188 193 189 190 187 179 179 176 135 148 194 155 171 175
235 241 213 221 208 196 199 195 163 138 181 186 186 157 100 200 240 252 290 327 301 260 210 205 203 206 204 190 187 193 180 201 202 201 209 208 208 211 208 216 215 195 184 183 185 177 166 175 186 193 176 172 173 168
231 250 183 187 192 198 148 105 108 232 216 202 152 169 182 200 241 277 332 56 62 152 167 196 203 202 205 204 193 187 196 209 210 206 210 201 197 198 208 233 225 193 179 179 177 174 164 178 152 153 178 182 174 172
246 231 200 178 183 209 209 182 202 203 220 189 166 216 226 225 282 280 278 260 215 176 189 177 164 184 201 209 210 208 197 208 202 200 211 213 201 200 199 210 211 188 184 180 177 172 179 164 173 158 170 174 177 174
237 214 210 204 168 204 232 211 225 218 206 220 232 244 256 261 263 253 257 259 202 186 164 175 186 185 200 204 196 201 215 222 217 209 208 211 199 198 194 195 197 185 182 185 184 174 167 156 143 167 192 190 176 172
240 178 196 218 214 221 242 227 180 182 205 212 221 241 244 274 272 267 266 251 237 232 230 233 212 197 206 217 201 195 206 209 217 215 214 214 208 193 198 198 191 186 182 186 182 178 175 177 160 167 178 175 169 166
212 202 187 172 207 197 176 194 207 212 205 205 216 231 255 271 283 284 286 251 229 225 225 223 220 205 200 203 192 195 198 203 206 201 204 208 205 194 198 194 189 188 186 187 181 182 168 180 190 174 179 174 169 171
221 168 160 143 138 165 171 173 221 269 235 230 226 227 239 248 253 266 279 248 226 216 215 206 194 189 187 188 180 194 200 188 187 203 208 205 195 197 186 192 201 196 190 189 189 187 176 167 182 187 181 175 179 182